Location: ????????
(48.4751°N, 37.6926°E)
Time: 20:54:53
(UTC+00:00)

CREW DRAGON DEMO-1 DEB - Pass Details

Date: 20 January 2021
Orbit: 334 x 338 km, 51.6° (Epoch: 01 March)

Event Time Altitude Azimuth Distance (km) Brightness Sun altitude
Rises 15:58:00 0° 290° (WNW) 2,173 7.7 -17.7°
Reaches altitude 10° 16:00:02 10° 293° (WNW) 1,322 6.4 -18.0°
Enters shadow 16:02:49 69° 348° (NNW) 378 2.7 -18.5°
